Location: Chantarel
(45.1638°N, 1.7873°E)
Time: 20:52:09
(UTC+00:00)

Cosmos 2322 Rocket - Pass Details

Date: 03 March 2021
Orbit: 832 x 852 km, 71.0° (Epoch: 13 April)

Event Time Altitude Azimuth Distance (km) Brightness Sun altitude
Rises 19:06:00 0° 217° (SW) 3,364 5.8 -15.4°
Reaches altitude 10° 19:08:28 10° 222° (SW) 2,434 5.1 -15.8°
Maximum altitude 19:13:57 56° 300° (WNW) 987 2.9 -16.8°
Drops below altitude 10° 19:19:28 10° 19° (NNE) 2,455 4.5 -17.8°
Sets 19:21:59 0° 23° (NNE) 3,396 5.2 -18.2°
